[[{"header":{"parameterUnit":"m.s-1","parameterCategory":1,"la1":30.2991,"la2":30.254,"lo1":-89.0895,"lo2":-89.0444,"dy":0.0017,"dx":0.0017,"nx":28,"ny":28,"refTime":"2023-10-22T03:00:00:Z","depth":0,"parameterNumber":2,"parameterNumberName":"U-component_of_WINDS"},"data":[0,0,0,0,0,0,0,0,0,0,0,0,0,0,0,0,0,0,0,0,0,0,0,0,0,0,0,0,0,0,0,0,0,0,0,0,0,0,0,0,0,0,0,0,0,0,0,0,0,0,0,0,0,0,0,0,0,0,0.2609,0.261,0,0.2706,0.2707,0.2708,0.271,0.2709,0.2708,0.2707,0.281,0.2814,0.2817,0,0,0,0,0,0,0,0,0,0,0,0,0,0.243,0.2433,0.2609,0.261,0.2611,0.2706,0.2707,0.2708,0.2711,0.2709,0.2708,0.2706,0.2809,0.2813,0.2818,0,0,0,0,0,0,0,0,0,0,0,0,0,0.2515,0.2434,0.2609,0.2624,0.2626,0.2705,0.2707,0.2709,0.2711,0.2709,0.2707,0.2706,0.2807,0.2813,0.2818,0.289,0,0,0.2836,0.2839,0,0,0,0,0,0,0,0,0.251,0.2522,0.262,0.2623,0.2625,0.2694,0.2682,0.277,0.2711,0.2679,0.2707,0.2705,0.2773,0.2782,0.2804,0.2895,0.29,0.2837,0.284,0.2843,0.2844,0,0,0,0,0,0,0,0.2504,0.2518,0.2647,0.2622,0.2625,0.2627,0.2637,0.2698,0.2735,0.2681,0.2682,0.2693,0.2774,0.2798,0.2806,0.2901,0.2837,0.2842,0.2845,0.2848,0.3058,0.306,0,0,0,0,0,0,0.2495,0.2513,0.2644,0.265,0.2562,0.2632,0.2643,0.2674,0.2734,0.2742,0.2695,0.2693,0.2789,0.2799,0.281,0.29,0.2843,0.2848,0.2851,0.3056,0.3059,0.3061,0,0,0,0,0,0,0.2491,0.2507,0.264,0.2582,0.2599,0.2637,0.2671,0.2677,0.2701,0.2744,0.2751,0.2712,0.2788,0.2802,0.2871,0.2903,0.2851,0.2856,0.3054,0.3057,0.306,0.3078,0,0,0,0,0,0,0.2486,0.2505,0.2532,0.2582,0.2602,0.2698,0.2673,0.268,0.271,0.2709,0.2762,0.277,0.2788,0.2862,0.2876,0.291,0.2861,0.3051,0.3055,0.3059,0.3075,0.3082,0.3088,0,0,0,0,0,0.2479,0.2534,0.2533,0.2549,0.2636,0.27,0.2711,0.273,0.2713,0.2741,0.2769,0.2768,0.2897,0.2869,0.2885,0.2921,0.3049,0.3054,0.3059,0.3072,0.3081,0.3087,0,0,0,0,0,0,0.2488,0.2541,0.2541,0.2613,0.2652,0.27,0.2736,0.2738,0.2784,0.2781,0.2803,0.2815,0.2884,0.2909,0.2877,0.2995,0.2971,0.2979,0.2976,0.2984,0.299,0.2984,0.2865,0,0,0,0,0,0.2498,0.2544,0.2588,0.2647,0.2667,0.2698,0.2727,0.2738,0.278,0.2796,0.2829,0.2871,0.2921,0.2954,0.3002,0.3078,0.3091,0.3111,0.3117,0.3122,0.313,0.3174,0.3184,0.3077,0.3077,0.3077,0,0,0.2519,0.2554,0.2582,0.265,0.2682,0.2731,0.2712,0.2764,0.2802,0.2805,0.2872,0.2897,0.2946,0.3019,0.3053,0.3042,0.3162,0.3128,0.3132,0.3137,0.318,0.319,0.3199,0.308,0.3079,0.3079,0,0,0.2584,0.2614,0.2667,0.2699,0.2747,0.2767,0.278,0.2828,0.2845,0.2912,0.2916,0.2961,0.3046,0.3081,0.311,0.3188,0.319,0.3203,0.3236,0.3279,0.3287,0.3295,0.3325,0.3335,0.321,0.321,0.321,0,0.2605,0.2678,0.2695,0.2747,0.2778,0.2782,0.2837,0.2867,0.2929,0.2951,0.2937,0.3045,0.3078,0.316,0.3179,0.3201,0.3218,0.3198,0.3284,0.3292,0.33,0.3328,0.3339,0.3211,0.3211,0.3211,0.3211,0,0.2702,0.2753,0.279,0.2849,0.2883,0.2937,0.2963,0.2997,0.3005,0.3027,0.3096,0.3135,0.3192,0.3212,0.3221,0.3296,0.3288,0.3279,0.3256,0.3311,0.3339,0.3349,0.3214,0.3213,0.3213,0.3212,0,0,0.2776,0.2842,0.2856,0.2883,0.2936,0.2976,0.3031,0.3085,0.3114,0.3156,0.3204,0.3276,0.3268,0.3301,0.3313,0.335,0.3412,0.3338,0.3339,0.3352,0.35,0.3507,0.3519,0.3413,0.3415,0.3416,0.3496,0,0.2847,0.2943,0.296,0.3044,0.3092,0.3097,0.3144,0.3183,0.3205,0.325,0.3275,0.3326,0.3311,0.3331,0.3368,0.3397,0.3442,0.3391,0.3459,0.3461,0.3448,0.3533,0.3541,0.3615,0.3507,0.3509,0.351,0,0.2944,0.2988,0.3077,0.3124,0.3145,0.3187,0.3239,0.3281,0.3326,0.3339,0.3376,0.3384,0.3442,0.3415,0.3497,0.3462,0.349,0.3509,0.3512,0.3521,0.349,0.3546,0.3639,0.365,0.3527,0.3525,0.3524,0,0.2991,0.3072,0.3136,0.3159,0.3215,0.3245,0.327,0.3313,0.3345,0.339,0.3412,0.3464,0.3493,0.3534,0.3557,0.3535,0.3638,0.3612,0.3653,0.3652,0.3676,0.3674,0.3776,0.3691,0.3691,0.3691,0.369,0,0.307,0.3125,0.3158,0.3197,0.3259,0.3279,0.334,0.3365,0.3402,0.3448,0.3455,0.3498,0.3524,0.3572,0.359,0.3656,0.3669,0.3683,0.3687,0.3683,0.3682,0.3704,0.37,0.3694,0.3693,0.3692,0.3692,0,0.3133,0.3157,0.3228,0.3275,0.3288,0.3332,0.3374,0.3413,0.3435,0.3493,0.3507,0.3542,0.3598,0.3625,0.3694,0.3707,0.3782,0.3783,0.3767,0.3769,0.3809,0.3806,0.393,0.3948,0.3849,0.385,0.3851,0,0.3183,0.3225,0.3277,0.3307,0.3333,0.3382,0.3415,0.3436,0.347,0.3523,0.3557,0.3613,0.3659,0.3749,0.3781,0.3835,0.3838,0.3878,0.3846,0.3841,0.3841,0.3839,0.3844,0.3884,0.3885,0.3886,0.3886,0,0.3269,0.3279,0.3325,0.3376,0.3415,0.3456,0.3497,0.3522,0.3549,0.3587,0.3644,0.368,0.3751,0.3807,0.3863,0.389,0.3894,0.3896,0.3908,0.3905,0.3896,0.3903,0.3785,0.3893,0.3893,0.3892,0.3892,0.3891,0.3329,0.3367,0.341,0.3461,0.3494,0.3531,0.3571,0.3598,0.3645,0.3704,0.3713,0.3774,0.3819,0.3894,0.3924,0.3973,0.3964,0.3981,0.3986,0.3991,0.3994,0.3886,0.3983,0.3983,0.3982,0.3982,0.3982,0,0.3417,0.3445,0.3492,0.3548,0.3589,0.3587,0.3632,0.3667,0.372,0.376,0.3805,0.3872,0.3926,0.3963,0.4019,0.4051,0.4055,0.4066,0.4064,0.4071,0.3998,0.3982,0.4062,0.4062,0.4062,0.4062,0.4062,0.4062,0.3468,0.3533,0.3548,0.363,0.3657,0.3716,0.3742,0.3778,0.381,0.3883,0.3929,0.3952,0.3991,0.405,0.4101,0.411,0.4132,0.4143,0.4153,0.4084,0.4076,0.4068,0.4054,0.4147,0.4147,0.4222,0.4223,0.4223]},{"header":{"parameterUnit":"m.s-1","parameterCategory":1,"la1":30.2991,"la2":30.254,"lo1":-89.0895,"lo2":-89.0444,"dy":0.0017,"dx":0.0017,"nx":28,"ny":28,"refTime":"2023-10-22T03:00:00:Z","depth":0,"parameterNumber":3,"parameterNumberName":"V-component_of_WINDS"},"data":[0,0,0,0,0,0,0,0,0,0,0,0,0,0,0,0,0,0,0,0,0,0,0,0,0,0,0,0,0,0,0,0,0,0,0,0,0,0,0,0,0,0,0,0,0,0,0,0,0,0,0,0,0,0,0,0,0,0,0.8413,0.8412,0,0.8361,0.836,0.836,0.8289,0.8288,0.8287,0.8286,0.8232,0.8231,0.8231,0,0,0,0,0,0,0,0,0,0,0,0,0,0.845,0.845,0.8413,0.8412,0.8411,0.8361,0.836,0.8359,0.8289,0.8288,0.8286,0.8285,0.8232,0.8231,0.8231,0,0,0,0,0,0,0,0,0,0,0,0,0,0.842,0.845,0.8413,0.837,0.8366,0.8361,0.836,0.8359,0.829,0.8288,0.8286,0.8284,0.8232,0.8231,0.8231,0.8263,0,0,0.8229,0.8229,0,0,0,0,0,0,0,0,0.8422,0.8419,0.8377,0.8373,0.8368,0.833,0.8354,0.8327,0.829,0.8319,0.8286,0.8284,0.8266,0.8262,0.8256,0.8261,0.8258,0.8229,0.8229,0.8229,0.8229,0,0,0,0,0,0,0,0.8424,0.842,0.8392,0.8377,0.8371,0.8354,0.8347,0.8348,0.8303,0.8316,0.8311,0.8306,0.8263,0.8257,0.8255,0.8258,0.8229,0.8229,0.8229,0.8228,0.8287,0.8289,0,0,0,0,0,0,0.8432,0.8423,0.8394,0.839,0.8391,0.8354,0.8347,0.8344,0.8302,0.8294,0.8307,0.8303,0.8259,0.8255,0.8252,0.8289,0.8229,0.8228,0.8228,0.8285,0.8287,0.8289,0,0,0,0,0,0,0.8434,0.8431,0.8396,0.8405,0.8399,0.8356,0.8352,0.8344,0.8338,0.8296,0.8287,0.831,0.8257,0.8253,0.8261,0.8286,0.8228,0.8228,0.8283,0.8286,0.8288,0.8361,0,0,0,0,0,0,0.8435,0.8431,0.8443,0.8406,0.8399,0.8406,0.8354,0.8344,0.8337,0.8331,0.8296,0.8288,0.8256,0.8263,0.8261,0.8284,0.8227,0.828,0.8284,0.8287,0.8356,0.8366,0.8374,0,0,0,0,0,0.8437,0.8465,0.8444,0.8441,0.8413,0.8407,0.8404,0.8366,0.8339,0.8351,0.8324,0.8289,0.8283,0.8264,0.8262,0.8285,0.8279,0.8283,0.8287,0.8352,0.8364,0.8374,0,0,0,0,0,0,0.8506,0.846,0.8436,0.8453,0.8435,0.8396,0.8409,0.8379,0.8367,0.8362,0.8314,0.8307,0.8322,0.8304,0.8283,0.8314,0.8276,0.828,0.8326,0.8337,0.8346,0.835,0.8227,0,0,0,0,0,0.8524,0.8523,0.8482,0.8502,0.8494,0.8453,0.8449,0.8422,0.8401,0.8392,0.8366,0.8347,0.834,0.8337,0.8329,0.8353,0.8345,0.8367,0.8376,0.8384,0.8388,0.8401,0.8411,0.8303,0.8303,0.8303,0,0,0.856,0.8534,0.8537,0.8515,0.8498,0.8498,0.8447,0.845,0.845,0.8393,0.8399,0.8379,0.8355,0.8371,0.8377,0.8357,0.8416,0.8389,0.8396,0.8396,0.8406,0.8417,0.8426,0.8306,0.8305,0.8305,0,0,0.8626,0.8606,0.8621,0.8605,0.8579,0.8552,0.8556,0.8521,0.8506,0.8512,0.8469,0.8468,0.8458,0.8443,0.8434,0.8495,0.8463,0.8493,0.8541,0.8554,0.8562,0.8569,0.8593,0.8602,0.8498,0.8498,0.8498,0,0.8674,0.8674,0.8632,0.8638,0.863,0.8579,0.8593,0.8579,0.8552,0.8548,0.8526,0.8513,0.8492,0.8505,0.852,0.8514,0.8517,0.8498,0.8564,0.8571,0.8577,0.8599,0.8608,0.8502,0.8501,0.8501,0.85,0,0.8735,0.8735,0.875,0.8726,0.872,0.873,0.869,0.8689,0.8662,0.8637,0.8644,0.8618,0.8604,0.8605,0.8578,0.8614,0.8603,0.8573,0.8533,0.8593,0.8612,0.862,0.8507,0.8506,0.8505,0.8504,0,0,0.8844,0.8798,0.8804,0.8793,0.8761,0.8761,0.8769,0.8756,0.8756,0.8739,0.8745,0.8738,0.871,0.87,0.8671,0.8682,0.8734,0.8651,0.8649,0.8669,0.8774,0.8798,0.8809,0.8712,0.8714,0.8715,0.8777,0,0.8906,0.8918,0.8881,0.8902,0.8902,0.8853,0.886,0.8842,0.8819,0.8816,0.879,0.8787,0.875,0.8744,0.8752,0.8726,0.8755,0.8721,0.8718,0.8719,0.8728,0.8819,0.8844,0.8904,0.8784,0.8785,0.8786,0,0.8979,0.8967,0.8989,0.8957,0.8956,0.8963,0.8948,0.8946,0.8924,0.8906,0.8896,0.8862,0.8868,0.8829,0.8837,0.8815,0.8811,0.8798,0.88,0.8799,0.8758,0.8822,0.8922,0.8932,0.8798,0.8797,0.8796,0,0.9059,0.9048,0.906,0.9052,0.9014,0.9021,0.9005,0.8981,0.8976,0.8963,0.896,0.8948,0.8941,0.8933,0.8897,0.8872,0.891,0.8868,0.8896,0.8898,0.8908,0.8908,0.901,0.8903,0.8903,0.8903,0.8903,0,0.9133,0.9148,0.9096,0.9103,0.9119,0.9076,0.9093,0.9073,0.9052,0.9055,0.9011,0.9015,0.8967,0.8965,0.8937,0.8949,0.8945,0.8932,0.8925,0.8937,0.8939,0.8936,0.8931,0.8905,0.8905,0.8904,0.8904,0,0.9225,0.919,0.92,0.9164,0.9155,0.9169,0.9138,0.9144,0.9118,0.9122,0.9121,0.9081,0.9077,0.904,0.9027,0.9008,0.9031,0.9015,0.9039,0.9035,0.9066,0.9065,0.9171,0.9183,0.9067,0.9068,0.9069,0,0.9276,0.9287,0.9252,0.9251,0.9238,0.9236,0.9231,0.9189,0.9186,0.9162,0.9171,0.9163,0.9155,0.9151,0.912,0.9111,0.9095,0.9133,0.9093,0.9106,0.9097,0.9098,0.91,0.9142,0.9143,0.9144,0.9145,0,0.9369,0.9351,0.9345,0.9334,0.933,0.9318,0.9304,0.9306,0.926,0.9258,0.9254,0.9247,0.9235,0.9228,0.9214,0.9197,0.9165,0.9158,0.9164,0.9178,0.9192,0.9187,0.9064,0.9156,0.9155,0.9154,0.9154,0.9153,0.9443,0.9451,0.9428,0.9423,0.9409,0.9397,0.9401,0.9376,0.9372,0.9359,0.9334,0.9334,0.9312,0.9289,0.9275,0.9275,0.9255,0.9264,0.9266,0.927,0.9277,0.9191,0.9272,0.9271,0.9271,0.9271,0.927,0,0.9535,0.9518,0.9514,0.9497,0.9494,0.9462,0.9446,0.9445,0.9445,0.9428,0.9421,0.9416,0.941,0.9379,0.937,0.9375,0.936,0.9374,0.9374,0.9371,0.9294,0.9291,0.9387,0.9387,0.9387,0.9387,0.9387,0.9387,0.9583,0.9596,0.9575,0.958,0.9563,0.9563,0.9556,0.9545,0.9531,0.9528,0.9523,0.9503,0.9481,0.9469,0.9462,0.9453,0.9452,0.9472,0.9459,0.9388,0.9377,0.9366,0.9362,0.9472,0.9472,0.9536,0.9536,0.9537]}]]